Terug naar catalogus

CHUANG XIN 16B

CX-16B

ActiefCommunicatieVLEO
NORAD 53876·PAYLOAD·🇨🇳 China

Gelanceerd Aug 23, 2022 vanaf Xichang Satellite Launch Center

Loading…

Volgende Passages (komende 24 uur)

TLE

VersSource: Space-Track

Epoch: Sep 14, 2026, 18:19 UTC

1 53876U 22102B   26257.76347036  .00048032  00000-0  72937-3 0  9992
2 53876  28.9891 285.2420 0001891 188.8537 171.2042 15.53198788220613

Volg CHUANG XIN 16B in realtime met AllMySat

Download on the App Store